| time (UTC) | temp F | wind direction | speed knots | gust knots | rain 1hr in | rain 24hr in | rain mn in | humidity % | barometer mb |
| 20260507104816 | 61 | 130 | 12.2 | 0.0 | 0.00 | 0.00 | 0.00 | 72 | 1018.0 |
| 20260507103317 | 61 | 130 | 12.2 | 0.0 | 0.00 | 0.00 | 0.00 | 72 | 1018.0 |
| 20260507101817 | 63 | 130 | 13.0 | 0.0 | 0.00 | 0.00 | 0.00 | 68 | 1018.0 |
| 20260507100317 | 63 | 130 | 13.0 | 0.0 | 0.00 | 0.00 | 0.00 | 68 | 1018.0 |
| 20260507094817 | 63 | 130 | 13.0 | 0.0 | 0.00 | 0.00 | 0.00 | 68 | 1018.0 |
| 20260507093317 | 63 | 130 | 13.0 | 0.0 | 0.00 | 0.00 | 0.00 | 68 | 1018.0 |
| 20260507091818 | 61 | 130 | 12.2 | 0.0 | 0.00 | 0.00 | 0.00 | 72 | 1018.0 |
| 20260507090317 | 61 | 130 | 12.2 | 0.0 | 0.00 | 0.00 | 0.00 | 72 | 1018.0 |
| 20260507084817 | 61 | 120 | 11.3 | 0.0 | 0.00 | 0.00 | 0.00 | 68 | 1018.0 |
| 20260507083317 | 61 | 120 | 11.3 | 0.0 | 0.00 | 0.00 | 0.00 | 68 | 1018.0 |
| 20260507081817 | 63 | 140 | 11.3 | 0.0 | 0.00 | 0.00 | 0.00 | 64 | 1018.0 |
| 20260507080318 | 63 | 140 | 11.3 | 0.0 | 0.00 | 0.00 | 0.00 | 64 | 1018.0 |
| 20260507074818 | 61 | 150 | 7.8 | 0.0 | 0.00 | 0.00 | 0.00 | 72 | 1018.0 |
| 20260507073317 | 61 | 150 | 7.8 | 0.0 | 0.00 | 0.00 | 0.00 | 72 | 1018.0 |
| 20260507071817 | 59 | 160 | 8.7 | 0.0 | 0.00 | 0.00 | 0.00 | 77 | 1018.0 |
| 20260507070317 | 59 | 160 | 8.7 | 0.0 | 0.00 | 0.00 | 0.00 | 77 | 1018.0 |
| 20260507064817 | 57 | 160 | 9.6 | 0.0 | 0.00 | 0.00 | 0.00 | 82 | 1018.0 |
| 20260507063317 | 57 | 160 | 9.6 | 0.0 | 0.00 | 0.00 | 0.00 | 82 | 1018.0 |
| 20260507060317 | 54 | 160 | 7.8 | 0.0 | 0.00 | 0.00 | 0.00 | 94 | 1018.0 |
| 20260507054817 | 54 | 160 | 11.3 | 0.0 | 0.00 | 0.00 | 0.00 | 94 | 1018.0 |
| 20260507053324 | 54 | 160 | 11.3 | 0.0 | 0.00 | 0.00 | 0.00 | 94 | 1018.0 |
| 20260507051817 | 52 | 170 | 7.0 | 0.0 | 0.00 | 0.00 | 0.00 | 94 | 1018.0 |
| 20260507050317 | 52 | 170 | 7.0 | 0.0 | 0.00 | 0.00 | 0.00 | 94 | 1018.0 |
| 20260507043317 | 48 | 160 | 5.2 | 0.0 | 0.00 | 0.00 | 0.00 | 100 | 1017.0 |
| 20260507041817 | 45 | 180 | 5.2 | 0.0 | 0.00 | 0.00 | 0.00 | 100 | 1017.0 |
| 20260507040317 | 45 | 180 | 5.2 | 0.0 | 0.00 | 0.00 | 0.00 | 100 | 1017.0 |
| 20260507033316 | 39 | 210 | 2.6 | 0.0 | 0.00 | 0.00 | 0.00 | 100 | 1017.0 |
| 20260507031817 | 41 | 190 | 4.3 | 0.0 | 0.00 | 0.00 | 0.00 | 100 | 1017.0 |
| 20260507030317 | 41 | 190 | 4.3 | 0.0 | 0.00 | 0.00 | 0.00 | 100 | 1017.0 |
| 20260507024817 | 41 | 160 | 4.3 | 0.0 | 0.00 | 0.00 | 0.00 | 100 | 1017.0 |
| 20260507023317 | 41 | 160 | 4.3 | 0.0 | 0.00 | 0.00 | 0.00 | 100 | 1017.0 |
| 20260507021817 | 41 | 170 | 5.2 | 0.0 | 0.00 | 0.00 | 0.00 | 93 | 1017.0 |
| 20260507020317 | 41 | 170 | 5.2 | 0.0 | 0.00 | 0.00 | 0.00 | 93 | 1017.0 |
| 20260507014817 | 39 | 160 | 6.1 | 0.0 | 0.00 | 0.00 | 0.00 | 100 | 1017.0 |
| 20260507013316 | 39 | 160 | 6.1 | 0.0 | 0.00 | 0.00 | 0.00 | 100 | 1017.0 |
| 20260507011817 | 41 | 160 | 5.2 | 0.0 | 0.00 | 0.00 | 0.00 | 100 | 1017.0 |
| 20260507010317 | 41 | 160 | 5.2 | 0.0 | 0.00 | 0.00 | 0.00 | 100 | 1017.0 |
| 20260507004817 | 43 | 170 | 5.2 | 0.0 | 0.00 | 0.00 | 0.00 | 100 | 1017.0 |
| 20260507003317 | 43 | 170 | 5.2 | 0.0 | 0.00 | 0.00 | 0.00 | 100 | 1017.0 |
| 20260507001817 | 43 | 170 | 6.1 | 0.0 | 0.00 | 0.00 | 0.00 | 100 | 1017.0 |
| 20260507000317 | 43 | 170 | 6.1 | 0.0 | 0.00 | 0.00 | 0.00 | 100 | 1017.0 |
| 20260506234817 | 43 | 160 | 6.1 | 0.0 | 0.00 | 0.00 | 0.00 | 100 | 1017.0 |
| 20260506233317 | 43 | 160 | 6.1 | 0.0 | 0.00 | 0.00 | 0.00 | 100 | 1017.0 |
| 20260506231817 | 46 | 170 | 6.1 | 0.0 | 0.00 | 0.00 | 0.00 | 100 | 1017.0 |
| 20260506230317 | 46 | 170 | 6.1 | 0.0 | 0.00 | 0.00 | 0.00 | 100 | 1017.0 |
| 20260506223317 | 43 | 190 | 6.1 | 0.0 | 0.00 | 0.00 | 0.00 | 100 | 1017.0 |
| 20260506221817 | 45 | 180 | 7.0 | 0.0 | 0.00 | 0.00 | 0.00 | 93 | 1017.0 |
| 20260506220316 | 45 | 180 | 7.0 | 0.0 | 0.00 | 0.00 | 0.00 | 93 | 1017.0 |
| 20260506214833 | 43 | 170 | 5.2 | 0.0 | 0.00 | 0.00 | 0.00 | 100 | 1017.0 |
| 20260506213317 | 43 | 170 | 5.2 | 0.0 | 0.00 | 0.00 | 0.00 | 100 | 1017.0 |
| 20260506210316 | 43 | 160 | 7.0 | 0.0 | 0.00 | 0.00 | 0.00 | 100 | 1017.0 |
| 20260506204818 | 43 | 150 | 2.6 | 0.0 | 0.00 | 0.00 | 0.00 | 93 | 1017.0 |
| 20260506203317 | 43 | 150 | 2.6 | 0.0 | 0.00 | 0.00 | 0.00 | 93 | 1017.0 |
| 20260506200317 | 45 | 130 | 5.2 | 0.0 | 0.00 | 0.00 | 0.00 | 100 | 1017.0 |
| 20260506194836 | 46 | 140 | 6.1 | 0.0 | 0.00 | 0.00 | 0.00 | 100 | 1017.0 |
| 20260506193341 | 46 | 140 | 6.1 | 0.0 | 0.00 | 0.00 | 0.00 | 100 | 1017.0 |
| 20260506191818 | 46 | 140 | 4.3 | 0.0 | 0.00 | 0.00 | 0.00 | 100 | 1017.0 |
| 20260506190317 | 46 | 140 | 4.3 | 0.0 | 0.00 | 0.00 | 0.00 | 100 | 1017.0 |
| 20260506184822 | 46 | 140 | 2.6 | 0.0 | 0.00 | 0.00 | 0.00 | 93 | 1017.0 |
| 20260506183317 | 46 | 140 | 2.6 | 0.0 | 0.00 | 0.00 | 0.00 | 93 | 1017.0 |
| 20260506181817 | 48 | 130 | 4.3 | 0.0 | 0.00 | 0.00 | 0.00 | 94 | 1016.0 |
| 20260506180317 | 48 | 130 | 4.3 | 0.0 | 0.00 | 0.00 | 0.00 | 94 | 1016.0 |
| 20260506174817 | 50 | 110 | 4.3 | 0.0 | 0.00 | 0.00 | 0.00 | 94 | 1016.0 |
| 20260506173317 | 50 | 110 | 4.3 | 0.0 | 0.00 | 0.00 | 0.00 | 94 | 1016.0 |
| 20260506171817 | 54 | 120 | 7.0 | 0.0 | 0.00 | 0.00 | 0.00 | 88 | 1016.0 |
| 20260506170317 | 54 | 120 | 7.0 | 0.0 | 0.00 | 0.00 | 0.00 | 88 | 1016.0 |
| 20260506164817 | 55 | 130 | 7.0 | 0.0 | 0.00 | 0.00 | 0.00 | 82 | 1016.0 |
| 20260506163317 | 55 | 130 | 7.0 | 0.0 | 0.00 | 0.00 | 0.00 | 82 | 1016.0 |
| 20260506161817 | 59 | 120 | 7.8 | 0.0 | 0.00 | 0.00 | 0.00 | 72 | 1016.0 |
| 20260506160317 | 59 | 120 | 7.8 | 0.0 | 0.00 | 0.00 | 0.00 | 72 | 1016.0 |
| 20260506154818 | 61 | 120 | 7.8 | 0.0 | 0.00 | 0.00 | 0.00 | 68 | 1016.0 |
| 20260506153317 | 61 | 120 | 7.8 | 0.0 | 0.00 | 0.00 | 0.00 | 68 | 1016.0 |
| 20260506151817 | 63 | 130 | 7.8 | 0.0 | 0.00 | 0.00 | 0.00 | 59 | 1016.0 |
| 20260506150323 | 63 | 130 | 7.8 | 0.0 | 0.00 | 0.00 | 0.00 | 59 | 1016.0 |
| 20260506144817 | 63 | 120 | 8.7 | 0.0 | 0.00 | 0.00 | 0.00 | 59 | 1016.0 |
| 20260506143329 | 63 | 120 | 8.7 | 0.0 | 0.00 | 0.00 | 0.00 | 59 | 1016.0 |
| 20260506141817 | 63 | 130 | 8.7 | 0.0 | 0.00 | 0.00 | 0.00 | 59 | 1016.0 |
| 20260506140432 | 63 | 130 | 8.7 | 0.0 | 0.00 | 0.00 | 0.00 | 59 | 1016.0 |
| 20260506134842 | 64 | 130 | 8.7 | 0.0 | 0.00 | 0.00 | 0.00 | 56 | 1016.0 |
| 20260506133317 | 64 | 130 | 8.7 | 0.0 | 0.00 | 0.00 | 0.00 | 56 | 1016.0 |
| 20260506131817 | 66 | 130 | 7.8 | 0.0 | 0.00 | 0.00 | 0.00 | 56 | 1016.0 |
| 20260506130326 | 66 | 130 | 7.8 | 0.0 | 0.00 | 0.00 | 0.00 | 56 | 1016.0 |
| 20260506124817 | 66 | 130 | 7.8 | 0.0 | 0.00 | 0.00 | 0.00 | 52 | 1016.0 |
| 20260506123317 | 66 | 130 | 7.8 | 0.0 | 0.00 | 0.00 | 0.00 | 52 | 1016.0 |
| 20260506121817 | 66 | 130 | 8.7 | 0.0 | 0.00 | 0.00 | 0.00 | 52 | 1017.0 |
| 20260506120317 | 66 | 130 | 8.7 | 0.0 | 0.00 | 0.00 | 0.00 | 52 | 1017.0 |
| 20260506114817 | 66 | 120 | 8.7 | 0.0 | 0.00 | 0.00 | 0.00 | 52 | 1017.0 |
| 20260506113317 | 66 | 120 | 8.7 | 0.0 | 0.00 | 0.00 | 0.00 | 52 | 1017.0 |
| 20260506111817 | 66 | 140 | 7.8 | 0.0 | 0.00 | 0.00 | 0.00 | 56 | 1017.0 |
| 20260506110317 | 66 | 140 | 7.8 | 0.0 | 0.00 | 0.00 | 0.00 | 56 | 1017.0 |